BLY1314 LFMT-EGGP

Flight info

Callsign BLY1314
Flight time 1h 55m
Altitude 38000
Route BRUSC DCT NEKTA DCT PIMQO DCT TUPAR UN861 DIKRO UM184 HEMEL T420 ELVOS
Aircraft B38M/M-SDE1FGHILORVWXY/HB1

Departure

Time 2026-04-24 18:56
Airport Montpellier-Méditerranée Airport (LFMT)

Arrival

Time 2026-04-24 20:52
Airport Liverpool John Lennon Airport (EGGP)
Time Latitude Longitude Altitude Speed Heading
2026-04-24 18:54 43.57188 3.97999 20 ft 17 kts 118°
2026-04-24 18:55 43.57327 3.98121 21 ft 19 kts 306°
2026-04-24 18:55 43.57488 3.97803 25 ft 81 kts 305°
2026-04-24 18:55 43.57971 3.96820 38 ft 160 kts 308°
2026-04-24 18:56 43.58705 3.95420 574 ft 191 kts 304°
2026-04-24 18:56 43.59535 3.93997 1829 ft 191 kts 316°
2026-04-24 18:56 43.60810 3.93194 2545 ft 217 kts 349°
2026-04-24 18:56 43.62402 3.92871 3173 ft 245 kts 341°
2026-04-24 18:57 43.64003 3.91876 4030 ft 261 kts 334°
2026-04-24 18:57 43.65702 3.90785 4967 ft 276 kts 335°
2026-04-24 18:57 43.67434 3.89673 6222 ft 273 kts 334°
2026-04-24 18:57 43.69038 3.88284 7364 ft 274 kts 314°
2026-04-24 18:58 43.70055 3.86068 8418 ft 278 kts 289°
2026-04-24 18:58 43.70375 3.83419 9465 ft 282 kts 275°
2026-04-24 18:58 43.70554 3.80690 10415 ft 289 kts 276°
2026-04-24 18:58 43.70733 3.77872 10996 ft 308 kts 276°
2026-04-24 18:59 43.70916 3.74821 11496 ft 328 kts 275°
2026-04-24 18:59 43.71100 3.71616 12127 ft 341 kts 275°
2026-04-24 18:59 43.71286 3.68303 12926 ft 347 kts 275°
2026-04-24 18:59 43.71472 3.64965 13842 ft 351 kts 276°
2026-04-24 19:00 43.71658 3.61578 14604 ft 356 kts 275°
2026-04-24 19:00 43.71844 3.58155 15374 ft 359 kts 275°
2026-04-24 19:00 43.72033 3.54693 16110 ft 364 kts 275°
2026-04-24 19:00 43.72222 3.51188 16833 ft 368 kts 275°
2026-04-24 19:01 43.72413 3.47640 17561 ft 372 kts 275°
2026-04-24 19:01 43.72605 3.44052 18263 ft 376 kts 275°
2026-04-24 19:01 43.72798 3.40423 18889 ft 380 kts 275°
2026-04-24 19:01 43.72991 3.36757 19497 ft 383 kts 275°
2026-04-24 19:02 43.73120 3.34313 19894 ft 386 kts 275°
2026-04-24 19:02 43.73314 3.30593 20494 ft 389 kts 275°
2026-04-24 19:02 43.73508 3.26847 21087 ft 393 kts 275°
2026-04-24 19:02 43.73704 3.23050 21674 ft 396 kts 275°
2026-04-24 19:03 43.73941 3.19238 22236 ft 399 kts 281°
2026-04-24 19:03 43.74780 3.15594 22807 ft 399 kts 295°
2026-04-24 19:03 43.75702 3.11949 23308 ft 406 kts 279°
2026-04-24 19:03 43.75753 3.08034 23909 ft 409 kts 271°
2026-04-24 19:04 43.76093 3.04134 24255 ft 410 kts 289°
2026-04-24 19:04 43.77330 3.00615 24802 ft 408 kts 306°
2026-04-24 19:04 43.79212 2.97660 25182 ft 412 kts 316°
2026-04-24 19:04 43.81275 2.94885 25656 ft 415 kts 316°
2026-04-24 19:05 43.83379 2.92139 26113 ft 417 kts 317°
2026-04-24 19:05 43.85487 2.89427 26533 ft 420 kts 317°
2026-04-24 19:05 43.87670 2.86645 26974 ft 423 kts 317°
2026-04-24 19:05 43.89851 2.83878 27398 ft 426 kts 317°
2026-04-24 19:06 43.92042 2.81101 27817 ft 428 kts 317°
2026-04-24 19:06 43.94246 2.78306 28231 ft 431 kts 317°
2026-04-24 19:06 43.96467 2.75488 28629 ft 434 kts 317°
2026-04-24 19:06 43.98697 2.72655 29022 ft 436 kts 317°
2026-04-24 19:07 44.00915 2.69834 29403 ft 439 kts 317°
2026-04-24 19:07 44.03199 2.66927 29816 ft 441 kts 316°
2026-04-24 19:07 44.05474 2.64026 30112 ft 446 kts 316°
2026-04-24 19:07 44.07740 2.61135 30426 ft 449 kts 316°
2026-04-24 19:08 44.10074 2.58153 30767 ft 450 kts 316°
2026-04-24 19:08 44.12357 2.55235 31091 ft 453 kts 316°
2026-04-24 19:08 44.14713 2.52219 31409 ft 455 kts 316°
2026-04-24 19:08 44.17016 2.49268 31781 ft 455 kts 316°
2026-04-24 19:09 44.19340 2.46286 32232 ft 454 kts 316°
2026-04-24 19:09 44.21665 2.43299 32691 ft 453 kts 316°
2026-04-24 19:09 44.23972 2.40333 33165 ft 451 kts 316°
2026-04-24 19:09 44.26275 2.37368 33607 ft 450 kts 316°
2026-04-24 19:10 44.28571 2.34409 34046 ft 449 kts 316°
2026-04-24 19:10 44.30863 2.31452 34452 ft 448 kts 316°
2026-04-24 19:10 44.33154 2.28494 34813 ft 447 kts 315°
2026-04-24 19:10 44.35437 2.25541 35127 ft 447 kts 315°
2026-04-24 19:11 44.37720 2.22586 35461 ft 447 kts 315°
2026-04-24 19:11 44.39999 2.19633 35806 ft 446 kts 316°
2026-04-24 19:11 44.42269 2.16687 36170 ft 445 kts 315°
2026-04-24 19:11 44.44530 2.13750 36516 ft 443 kts 315°
2026-04-24 19:12 44.46789 2.10813 36836 ft 443 kts 315°
2026-04-24 19:12 44.49040 2.07884 37145 ft 442 kts 315°
2026-04-24 19:12 44.51289 2.04953 37442 ft 441 kts 315°
2026-04-24 19:12 44.53535 2.02022 37731 ft 440 kts 315°
2026-04-24 19:13 44.55018 2.00086 37924 ft 440 kts 315°
2026-04-24 19:13 44.58013 1.96171 38129 ft 441 kts 315°
2026-04-24 19:13 44.60252 1.93240 38103 ft 439 kts 315°
2026-04-24 19:14 44.64696 1.87413 38097 ft 438 kts 315°
2026-04-24 19:14 44.69149 1.81562 38087 ft 438 kts 315°
2026-04-24 19:15 44.73599 1.75702 38091 ft 438 kts 315°
2026-04-24 19:15 44.78044 1.69836 38089 ft 438 kts 315°
2026-04-24 19:16 44.84709 1.61014 38080 ft 438 kts 315°
2026-04-24 19:16 44.89121 1.55159 38082 ft 438 kts 315°
2026-04-24 19:17 44.93557 1.49259 38084 ft 440 kts 315°
2026-04-24 19:17 44.98010 1.43323 38082 ft 440 kts 315°
2026-04-24 19:18 45.02458 1.37380 38073 ft 439 kts 314°
2026-04-24 19:18 45.06900 1.31436 38083 ft 439 kts 314°
2026-04-24 19:19 45.11337 1.25484 38071 ft 439 kts 314°
2026-04-24 19:19 45.15755 1.19509 38073 ft 439 kts 313°
2026-04-24 19:20 45.20065 1.13380 38071 ft 439 kts 313°
2026-04-24 19:20 45.24391 1.07251 38073 ft 440 kts 313°
2026-04-24 19:21 45.28716 1.01113 38071 ft 440 kts 313°
2026-04-24 19:21 45.33042 0.94959 38071 ft 440 kts 313°
2026-04-24 19:22 45.37357 0.88806 38069 ft 440 kts 313°
2026-04-24 19:22 45.41648 0.82673 38075 ft 439 kts 313°
2026-04-24 19:23 45.45963 0.76493 38078 ft 439 kts 312°
2026-04-24 19:23 45.50282 0.70293 38076 ft 441 kts 312°
2026-04-24 19:24 45.54603 0.64075 38076 ft 441 kts 312°
2026-04-24 19:24 45.58923 0.57843 38084 ft 441 kts 312°
2026-04-24 19:25 45.63233 0.51614 38076 ft 441 kts 312°
2026-04-24 19:25 45.67540 0.45372 38080 ft 441 kts 312°
2026-04-24 19:26 45.71846 0.39118 38084 ft 441 kts 312°
2026-04-24 19:26 45.76129 0.32883 38080 ft 443 kts 312°
2026-04-24 19:27 45.80448 0.26580 38075 ft 443 kts 312°
2026-04-24 19:27 45.84760 0.20274 38074 ft 443 kts 312°
2026-04-24 19:28 45.89073 0.13951 38077 ft 443 kts 312°
2026-04-24 19:28 45.93371 0.07633 38077 ft 442 kts 312°
2026-04-24 19:29 45.99821 -0.01873 38082 ft 442 kts 312°
2026-04-24 19:30 46.04094 -0.08190 38086 ft 444 kts 311°
2026-04-24 19:30 46.08405 -0.14578 38079 ft 444 kts 311°
2026-04-24 19:31 46.12702 -0.20961 38079 ft 444 kts 311°
2026-04-24 19:31 46.17002 -0.27364 38087 ft 444 kts 311°
2026-04-24 19:32 46.21291 -0.33764 38080 ft 443 kts 311°
2026-04-24 19:32 46.25575 -0.40173 38080 ft 443 kts 311°
2026-04-24 19:33 46.29855 -0.46589 38078 ft 443 kts 311°
2026-04-24 19:33 46.34138 -0.53024 38081 ft 443 kts 311°
2026-04-24 19:34 46.38409 -0.59457 38080 ft 443 kts 311°
2026-04-24 19:34 46.43158 -0.65098 38079 ft 447 kts 333°
2026-04-24 19:34 46.46125 -0.66496 38086 ft 452 kts 348°
2026-04-24 19:35 46.49243 -0.67169 38089 ft 454 kts 349°
2026-04-24 19:35 46.55533 -0.68363 38083 ft 455 kts 351°
2026-04-24 19:36 46.61828 -0.69448 38086 ft 455 kts 351°
2026-04-24 19:36 46.68071 -0.70502 38084 ft 455 kts 351°
2026-04-24 19:37 46.74399 -0.71571 38088 ft 455 kts 351°
2026-04-24 19:37 46.80686 -0.72636 38089 ft 454 kts 351°
2026-04-24 19:38 46.86926 -0.73695 38095 ft 455 kts 351°
2026-04-24 19:38 46.93214 -0.74764 38099 ft 455 kts 351°
2026-04-24 19:39 46.99500 -0.75836 38101 ft 454 kts 351°
2026-04-24 19:39 47.05780 -0.76910 38098 ft 454 kts 351°
2026-04-24 19:40 47.12059 -0.77986 38095 ft 454 kts 351°
2026-04-24 19:40 47.18350 -0.79066 38110 ft 454 kts 351°
2026-04-24 19:41 47.24626 -0.80146 38102 ft 454 kts 351°
2026-04-24 19:41 47.30902 -0.81230 38104 ft 454 kts 351°
2026-04-24 19:42 47.37180 -0.82316 38103 ft 454 kts 351°
2026-04-24 19:42 47.43453 -0.83403 38103 ft 454 kts 351°
2026-04-24 19:43 47.49723 -0.84493 38109 ft 457 kts 351°
2026-04-24 19:43 47.56056 -0.85400 38116 ft 457 kts 354°
2026-04-24 19:44 47.62405 -0.86158 38113 ft 457 kts 353°
2026-04-24 19:44 47.68754 -0.86934 38114 ft 457 kts 353°
2026-04-24 19:45 47.75106 -0.87714 38118 ft 457 kts 353°
2026-04-24 19:45 47.81455 -0.88495 38132 ft 457 kts 353°
2026-04-24 19:46 47.87764 -0.89273 38130 ft 457 kts 353°
2026-04-24 19:46 47.94101 -0.90057 38130 ft 457 kts 353°
2026-04-24 19:47 48.00455 -0.90844 38130 ft 457 kts 353°
2026-04-24 19:47 48.05723 -0.91499 38132 ft 457 kts 353°
2026-04-24 19:48 48.12058 -0.92288 38133 ft 457 kts 353°
2026-04-24 19:48 48.21557 -0.93474 38136 ft 457 kts 353°
2026-04-24 19:49 48.34222 -0.95063 38149 ft 457 kts 353°
2026-04-24 19:50 48.46893 -0.96661 38150 ft 457 kts 353°
2026-04-24 19:51 48.56406 -0.97865 38155 ft 457 kts 353°
2026-04-24 19:52 48.65909 -0.99073 38163 ft 457 kts 353°
2026-04-24 19:52 48.72245 -0.99881 38158 ft 456 kts 353°
2026-04-24 19:53 48.78576 -1.00691 38158 ft 456 kts 353°
2026-04-24 19:54 48.88028 -1.01903 38167 ft 457 kts 353°
2026-04-24 19:54 48.94363 -1.02718 38170 ft 457 kts 353°
2026-04-24 19:55 48.99635 -1.03397 38169 ft 457 kts 353°
2026-04-24 19:55 49.07037 -1.04354 38174 ft 457 kts 353°
2026-04-24 19:56 49.13375 -1.05176 38173 ft 457 kts 353°
2026-04-24 19:56 49.19692 -1.05997 38177 ft 457 kts 353°
2026-04-24 19:57 49.26038 -1.06824 38183 ft 457 kts 353°
2026-04-24 19:57 49.32374 -1.07652 38186 ft 457 kts 353°
2026-04-24 19:58 49.38717 -1.08483 38182 ft 457 kts 353°
2026-04-24 19:58 49.45050 -1.09314 38191 ft 457 kts 353°
2026-04-24 19:59 49.51383 -1.10147 38194 ft 457 kts 353°
2026-04-24 19:59 49.57720 -1.10971 38196 ft 457 kts 355°
2026-04-24 20:00 49.64085 -1.10302 38187 ft 460 kts
2026-04-24 20:00 49.70460 -1.09444 38212 ft 460 kts
2026-04-24 20:01 49.76802 -1.08574 38212 ft 460 kts
2026-04-24 20:01 49.83221 -1.07694 38206 ft 459 kts
2026-04-24 20:02 49.88520 -1.06966 38206 ft 460 kts
2026-04-24 20:02 49.95931 -1.05946 38208 ft 460 kts
2026-04-24 20:03 50.02301 -1.05065 38211 ft 459 kts
2026-04-24 20:03 50.08664 -1.04181 38217 ft 459 kts
2026-04-24 20:04 50.15022 -1.03296 38222 ft 459 kts
2026-04-24 20:04 50.21388 -1.02408 38223 ft 459 kts
2026-04-24 20:05 50.27744 -1.01518 38224 ft 458 kts
2026-04-24 20:05 50.34100 -1.00627 38230 ft 459 kts
2026-04-24 20:06 50.40453 -0.99734 38230 ft 459 kts
2026-04-24 20:06 50.46803 -0.98839 38229 ft 457 kts
2026-04-24 20:07 50.52071 -0.98095 38233 ft 457 kts
2026-04-24 20:07 50.59429 -0.97053 38242 ft 457 kts
2026-04-24 20:08 50.65764 -0.96154 38255 ft 457 kts
2026-04-24 20:08 50.72092 -0.95252 38235 ft 456 kts
2026-04-24 20:09 50.78405 -0.94350 38239 ft 456 kts
2026-04-24 20:09 50.84617 -0.92424 38270 ft 457 kts 17°
2026-04-24 20:10 50.90663 -0.89352 38262 ft 456 kts 15°
2026-04-24 20:10 50.96697 -0.86243 38253 ft 456 kts 15°
2026-04-24 20:11 51.02731 -0.83112 38257 ft 456 kts 15°
2026-04-24 20:11 51.08757 -0.79976 38265 ft 456 kts 15°
2026-04-24 20:12 51.14788 -0.76829 38266 ft 456 kts 15°
2026-04-24 20:12 51.20813 -0.73677 38272 ft 456 kts 15°
2026-04-24 20:13 51.26844 -0.70512 38276 ft 456 kts 15°
2026-04-24 20:13 51.32866 -0.67344 38258 ft 456 kts 15°
2026-04-24 20:14 51.38882 -0.64170 38260 ft 455 kts 15°
2026-04-24 20:14 51.44902 -0.60985 38263 ft 455 kts 15°
2026-04-24 20:15 51.50879 -0.57814 38269 ft 455 kts 15°
2026-04-24 20:15 51.56568 -0.54787 38275 ft 455 kts 15°
2026-04-24 20:16 51.62577 -0.51582 38260 ft 455 kts 15°
2026-04-24 20:16 51.68623 -0.48348 38290 ft 455 kts 15°
2026-04-24 20:17 51.74632 -0.45128 38293 ft 455 kts 15°
2026-04-24 20:17 51.80738 -0.44275 38270 ft 440 kts 346°
2026-04-24 20:17 51.83674 -0.45749 38259 ft 435 kts 332°
2026-04-24 20:18 51.88973 -0.50303 38261 ft 434 kts 327°
2026-04-24 20:18 51.94187 -0.55226 38264 ft 434 kts 326°
2026-04-24 20:19 51.99365 -0.60254 38260 ft 433 kts 326°
2026-04-24 20:19 52.04529 -0.65309 38249 ft 433 kts 326°
2026-04-24 20:20 52.07119 -0.67853 37064 ft 441 kts 326°
2026-04-24 20:20 52.09729 -0.70418 36570 ft 434 kts 326°
2026-04-24 20:20 52.12309 -0.72958 35706 ft 434 kts 326°
2026-04-24 20:20 52.14891 -0.75505 34592 ft 434 kts 325°
2026-04-24 20:21 52.17452 -0.78031 33649 ft 428 kts 325°
2026-04-24 20:21 52.19991 -0.80540 32952 ft 420 kts 325°
2026-04-24 20:21 52.22466 -0.82990 32335 ft 415 kts 325°
2026-04-24 20:21 52.24969 -0.85471 31544 ft 425 kts 326°
2026-04-24 20:22 52.27506 -0.87989 30620 ft 429 kts 326°
2026-04-24 20:22 52.30051 -0.90518 29930 ft 427 kts 326°
2026-04-24 20:22 52.32572 -0.93027 29350 ft 421 kts 326°
2026-04-24 20:22 52.35053 -0.95499 28758 ft 416 kts 326°
2026-04-24 20:23 52.37505 -0.97945 28175 ft 412 kts 326°
2026-04-24 20:23 52.39972 -1.00410 27549 ft 417 kts 326°
2026-04-24 20:23 52.42426 -1.02866 26981 ft 419 kts 326°
2026-04-24 20:23 52.44909 -1.05353 26378 ft 418 kts 326°
2026-04-24 20:24 52.46583 -1.07032 25986 ft 416 kts 326°
2026-04-24 20:24 52.49830 -1.10293 25123 ft 412 kts 326°
2026-04-24 20:24 52.52273 -1.12751 24499 ft 410 kts 326°
2026-04-24 20:24 52.54696 -1.15189 23955 ft 407 kts 327°
2026-04-24 20:25 52.57108 -1.17619 23195 ft 408 kts 327°
2026-04-24 20:25 52.59526 -1.20059 22514 ft 406 kts 327°
2026-04-24 20:25 52.61916 -1.22473 22001 ft 401 kts 327°
2026-04-24 20:25 52.64279 -1.24864 21460 ft 397 kts 327°
2026-04-24 20:26 52.66630 -1.27246 20891 ft 395 kts 328°
2026-04-24 20:26 52.68963 -1.29611 20365 ft 393 kts 328°
2026-04-24 20:26 52.71276 -1.31964 20022 ft 392 kts 328°
2026-04-24 20:26 52.73610 -1.34339 19782 ft 395 kts 328°
2026-04-24 20:27 52.75922 -1.36696 19589 ft 385 kts 328°
2026-04-24 20:27 52.78176 -1.38996 19391 ft 375 kts 328°
2026-04-24 20:27 52.80410 -1.41278 19166 ft 385 kts 328°
2026-04-24 20:27 52.82713 -1.43635 18951 ft 392 kts 328°
2026-04-24 20:28 52.85043 -1.46021 18739 ft 394 kts 328°
2026-04-24 20:28 52.87340 -1.48377 18543 ft 383 kts 328°
2026-04-24 20:28 52.89573 -1.50669 18347 ft 373 kts 328°
2026-04-24 20:28 52.91796 -1.52954 18097 ft 383 kts 328°
2026-04-24 20:29 52.93303 -1.54506 17965 ft 387 kts 328°
2026-04-24 20:29 52.96354 -1.57650 17677 ft 392 kts 328°
2026-04-24 20:29 52.98669 -1.60038 17474 ft 391 kts 328°
2026-04-24 20:29 53.01004 -1.62452 17276 ft 389 kts 328°
2026-04-24 20:30 53.03178 -1.64982 17072 ft 386 kts 317°
2026-04-24 20:30 53.04854 -1.68504 16858 ft 384 kts 298°
2026-04-24 20:30 53.05778 -1.72570 16444 ft 381 kts 282°
2026-04-24 20:30 53.06269 -1.76888 15965 ft 378 kts 280°
2026-04-24 20:31 53.06722 -1.81181 15483 ft 376 kts 280°
2026-04-24 20:31 53.07152 -1.85442 15004 ft 373 kts 279°
2026-04-24 20:31 53.07427 -1.88250 14694 ft 371 kts 279°
2026-04-24 20:31 53.07970 -1.93901 14063 ft 368 kts 279°
2026-04-24 20:32 53.08234 -1.96686 13723 ft 366 kts 279°
2026-04-24 20:32 53.08627 -2.00845 13226 ft 363 kts 279°
2026-04-24 20:32 53.09014 -2.04975 12759 ft 359 kts 279°
2026-04-24 20:32 53.09396 -2.09062 12316 ft 356 kts 279°
2026-04-24 20:33 53.09771 -2.13081 12100 ft 344 kts 279°
2026-04-24 20:33 53.10123 -2.16885 11936 ft 322 kts 279°
2026-04-24 20:33 53.10452 -2.20450 11786 ft 302 kts 279°
2026-04-24 20:33 53.10760 -2.23795 11640 ft 284 kts 279°
2026-04-24 20:34 53.11050 -2.26955 11430 ft 269 kts 279°
2026-04-24 20:34 53.11337 -2.30075 10782 ft 279 kts 279°
2026-04-24 20:34 53.11628 -2.33268 10498 ft 277 kts 279°
2026-04-24 20:34 53.11917 -2.36443 10162 ft 277 kts 279°
2026-04-24 20:35 53.12204 -2.39607 9837 ft 276 kts 279°
2026-04-24 20:35 53.12488 -2.42754 9521 ft 274 kts 279°
2026-04-24 20:35 53.12771 -2.45883 9183 ft 273 kts 279°
2026-04-24 20:35 53.13052 -2.49008 8861 ft 272 kts 279°
2026-04-24 20:36 53.13335 -2.52110 8535 ft 271 kts 281°
2026-04-24 20:36 53.14023 -2.54961 8130 ft 264 kts 308°
2026-04-24 20:36 53.15418 -2.56914 7522 ft 266 kts 335°
2026-04-24 20:36 53.17179 -2.57804 6974 ft 265 kts 347°
2026-04-24 20:37 53.18982 -2.58503 6463 ft 265 kts 347°
2026-04-24 20:37 53.20753 -2.59174 5932 ft 264 kts 347°
2026-04-24 20:37 53.22559 -2.59687 5434 ft 262 kts 354°
2026-04-24 20:37 53.24366 -2.60009 4934 ft 261 kts 354°
2026-04-24 20:38 53.26166 -2.60344 4431 ft 259 kts 354°
2026-04-24 20:38 53.27949 -2.60686 3952 ft 257 kts 354°
2026-04-24 20:38 53.29722 -2.61032 3477 ft 255 kts 354°
2026-04-24 20:38 53.31476 -2.61396 2981 ft 254 kts 351°
2026-04-24 20:39 53.33062 -2.62591 2503 ft 252 kts 319°
2026-04-24 20:39 53.34059 -2.64955 1967 ft 250 kts 288°
2026-04-24 20:39 53.34247 -2.67774 1767 ft 243 kts 264°
2026-04-24 20:39 53.34109 -2.70598 1718 ft 240 kts 262°
2026-04-24 20:40 53.33900 -2.73323 1374 ft 234 kts 262°
2026-04-24 20:40 53.33789 -2.75944 1400 ft 217 kts 266°
2026-04-24 20:40 53.33772 -2.78451 2154 ft 218 kts 268°
2026-04-24 20:40 53.33776 -2.80901 2751 ft 198 kts 269°
2026-04-24 20:41 53.33737 -2.83222 2191 ft 204 kts 267°
2026-04-24 20:41 53.34086 -2.85483 1768 ft 202 kts 308°
2026-04-24 20:41 53.35225 -2.86569 1670 ft 190 kts 358°
2026-04-24 20:41 53.36512 -2.86027 1784 ft 199 kts 29°
2026-04-24 20:42 53.37620 -2.84549 1819 ft 210 kts 56°
2026-04-24 20:42 53.38050 -2.82276 1726 ft 208 kts 96°
2026-04-24 20:42 53.37518 -2.80082 1743 ft 206 kts 129°
2026-04-24 20:42 53.36571 -2.78257 1765 ft 208 kts 132°
2026-04-24 20:43 53.35609 -2.76450 1745 ft 208 kts 132°
2026-04-24 20:43 53.34691 -2.74577 1737 ft 209 kts 122°
2026-04-24 20:43 53.34249 -2.72287 1717 ft 210 kts 95°
2026-04-24 20:43 53.34511 -2.69887 1742 ft 214 kts 68°
2026-04-24 20:44 53.35319 -2.67790 1767 ft 216 kts 57°
2026-04-24 20:44 53.36167 -2.65715 1753 ft 216 kts 58°
2026-04-24 20:44 53.37001 -2.63645 1746 ft 209 kts 58°
2026-04-24 20:44 53.37781 -2.61707 1721 ft 192 kts 58°
2026-04-24 20:45 53.38507 -2.59891 1740 ft 186 kts 59°
2026-04-24 20:45 53.39225 -2.58081 1755 ft 186 kts 59°
2026-04-24 20:45 53.39938 -2.56270 1746 ft 186 kts 59°
2026-04-24 20:45 53.40318 -2.54282 1673 ft 174 kts 97°
2026-04-24 20:46 53.39854 -2.52580 1676 ft 158 kts 137°
2026-04-24 20:46 53.38906 -2.51718 1741 ft 158 kts 168°
2026-04-24 20:46 53.37808 -2.51600 1802 ft 159 kts 179°
2026-04-24 20:46 53.36701 -2.51597 1817 ft 159 kts 179°
2026-04-24 20:47 53.35621 -2.51900 1739 ft 159 kts 208°
2026-04-24 20:47 53.34904 -2.53268 1679 ft 162 kts 249°
2026-04-24 20:47 53.34753 -2.55138 1770 ft 165 kts 263°
2026-04-24 20:47 53.34658 -2.57061 1835 ft 165 kts 262°
2026-04-24 20:48 53.34565 -2.58966 1897 ft 167 kts 263°
2026-04-24 20:48 53.34472 -2.60908 1839 ft 167 kts 263°
2026-04-24 20:48 53.34382 -2.62848 1770 ft 167 kts 263°
2026-04-24 20:48 53.34292 -2.64789 1749 ft 167 kts 263°
2026-04-24 20:49 53.34203 -2.66729 1740 ft 166 kts 263°
2026-04-24 20:49 53.34119 -2.68550 1755 ft 152 kts 263°
2026-04-24 20:49 53.34038 -2.70299 1587 ft 149 kts 263°
2026-04-24 20:49 53.33959 -2.72019 1433 ft 148 kts 262°
2026-04-24 20:50 53.33880 -2.73733 1231 ft 148 kts 262°
2026-04-24 20:50 53.33802 -2.75442 1049 ft 147 kts 262°
2026-04-24 20:50 53.33724 -2.77147 850 ft 146 kts 263°
2026-04-24 20:50 53.33646 -2.78838 647 ft 144 kts 263°
2026-04-24 20:51 53.33571 -2.80466 439 ft 139 kts 264°
2026-04-24 20:51 53.33498 -2.82086 244 ft 140 kts 265°
2026-04-24 20:51 53.33423 -2.83694 88 ft 134 kts 264°
2026-04-24 20:51 53.33369 -2.84861 82 ft 62 kts 265°
2026-04-24 20:52 53.33378 -2.85328 83 ft 27 kts 286°
2026-04-24 20:52 53.33434 -2.85563 84 ft 16 kts 292°
2026-04-24 20:52 53.33474 -2.85651 88 ft 7 kts 355°
2026-04-24 20:52 53.33496 -2.85618 90 ft 4 kts 67°
2026-04-24 20:53 53.33503 -2.85555 87 ft 7 kts 84°
2026-04-24 20:53 53.33537 -2.85506 90 ft 8 kts
2026-04-24 20:53 53.33598 -2.85518 91 ft 10 kts 334°
2026-04-24 20:53 53.33609 -2.85626 91 ft 7 kts 265°
2026-04-24 20:54 53.33582 -2.85657 92 ft 6 kts 179°
2026-04-24 20:54 53.33561 -2.85654 90 ft 0 kts 175°